• Em Portugal
  • Lista de países
  • Para 7 dias
  • Temperatura da água
  • Mapas de satélite
  • Mapa do tempo
  • Widgets de tempo
  • user-avatar
    Iniciar Sessão

    Previsão horária em Pegu

    Hoje, 23 Fevereiro, Sexta-feira

    Tempo Temperatura Precipitação Vento Pressão Humidade
    00:00 +26°C° 0 mm 1 m/s 750 mmHg 26%
    01:00 +25°C° 0 mm 1 m/s 750 mmHg 26%
    02:00 +24°C° 0 mm 1 m/s 750 mmHg 27%
    03:00 +24°C° 0 mm 1 m/s 750 mmHg 28%
    04:00 +23°C° 0 mm 1 m/s 750 mmHg 29%
    05:00 +23°C° 0 mm 1 m/s 750 mmHg 29%
    06:00 +22°C° 0 mm 1 m/s 751 mmHg 30%
    07:00 +24°C° 0 mm 1 m/s 751 mmHg 27%
    08:00 +26°C° 0 mm 1 m/s 751 mmHg 25%
    09:00 +28°C° 0 mm 1 m/s 752 mmHg 22%
    10:00 +30°C° 0 mm 1 m/s 751 mmHg 21%
    11:00 +32°C° 0 mm 1 m/s 751 mmHg 19%
    12:00 +33°C° 0 mm 1 m/s 751 mmHg 17%
    13:00 +34°C° 0 mm 1 m/s 750 mmHg 16%
    14:00 +35°C° 0 mm 2 m/s 749 mmHg 15%
    15:00 +36°C° 0 mm 2 m/s 748 mmHg 14%
    16:00 +34°C° 0 mm 2 m/s 748 mmHg 15%
    17:00 +32°C° 0 mm 1 m/s 749 mmHg 16%
    18:00 +31°C° 0 mm 1 m/s 749 mmHg 17%
    19:00 +30°C° 0 mm 1 m/s 749 mmHg 18%
    20:00 +29°C° 0 mm 1 m/s 750 mmHg 18%
    21:00 +28°C° 0 mm 1 m/s 750 mmHg 19%
    22:00 +28°C° 0 mm 1 m/s 750 mmHg 19%
    23:00 +27°C° 0 mm 1 m/s 751 mmHg 20%

    Amanhã, 24 Fevereiro, Sábado

    Tempo Temperatura Precipitação Vento Pressão Humidade
    00:00 +26°C° 0 mm 1 m/s 751 mmHg 20%
    01:00 +26°C° 0 mm 1 m/s 751 mmHg 21%
    02:00 +25°C° 0 mm 1 m/s 751 mmHg 22%
    03:00 +24°C° 0 mm 2 m/s 751 mmHg 23%
    04:00 +24°C° 0 mm 2 m/s 751 mmHg 25%
    05:00 +23°C° 0 mm 2 m/s 752 mmHg 27%
    06:00 +23°C° 0 mm 2 m/s 752 mmHg 29%
    07:00 +25°C° 0 mm 2 m/s 753 mmHg 27%
    08:00 +27°C° 0 mm 2 m/s 753 mmHg 25%
    09:00 +29°C° 0 mm 2 m/s 754 mmHg 23%
    10:00 +31°C° 0 mm 2 m/s 754 mmHg 21%
    11:00 +32°C° 0 mm 1 m/s 753 mmHg 19%
    12:00 +34°C° 0 mm 1 m/s 753 mmHg 17%
    13:00 +35°C° 0 mm 1 m/s 752 mmHg 16%
    14:00 +35°C° 0 mm 1 m/s 751 mmHg 16%
    15:00 +35°C° 0 mm 1 m/s 750 mmHg 15%
    16:00 +34°C° 0 mm 1 m/s 750 mmHg 17%
    17:00 +33°C° 0 mm 1 m/s 750 mmHg 18%
    18:00 +31°C° 0 mm 1 m/s 751 mmHg 19%
    19:00 +30°C° 0 mm 1 m/s 751 mmHg 20%
    20:00 +30°C° 0 mm 1 m/s 752 mmHg 21%
    21:00 +29°C° 0 mm 1 m/s 753 mmHg 21%
    22:00 +28°C° 0 mm 1 m/s 753 mmHg 22%
    23:00 +28°C° 0 mm 1 m/s 753 mmHg 23%

    Depois de amanhã, 25 Fevereiro, Domingo

    Tempo Temperatura Precipitação Vento Pressão Humidade
    00:00 +27°C° 0 mm 1 m/s 752 mmHg 24%
    01:00 +26°C° 0 mm 1 m/s 752 mmHg 25%
    02:00 +26°C° 0 mm 1 m/s 752 mmHg 27%
    03:00 +25°C° 0 mm 2 m/s 752 mmHg 29%
    04:00 +24°C° 0 mm 2 m/s 752 mmHg 31%
    05:00 +24°C° 0 mm 2 m/s 752 mmHg 33%
    06:00 +23°C° 0 mm 2 m/s 753 mmHg 35%
    07:00 +25°C° 0 mm 2 m/s 753 mmHg 33%
    08:00 +27°C° 0 mm 2 m/s 754 mmHg 31%
    09:00 +29°C° 0 mm 2 m/s 754 mmHg 28%
    10:00 +31°C° 0 mm 2 m/s 754 mmHg 25%
    11:00 +34°C° 0 mm 2 m/s 753 mmHg 23%
    12:00 +36°C° 0 mm 2 m/s 752 mmHg 20%
    13:00 +36°C° 0 mm 2 m/s 751 mmHg 19%
    14:00 +37°C° 0 mm 2 m/s 750 mmHg 18%
    15:00 +37°C° 0 mm 2 m/s 749 mmHg 17%
    16:00 +36°C° 0 mm 2 m/s 750 mmHg 19%
    17:00 +33°C° 0 mm 1 m/s 750 mmHg 20%
    18:00 +32°C° 0 mm 1 m/s 750 mmHg 22%
    19:00 +31°C° 0 mm 1 m/s 750 mmHg 23%
    20:00 +30°C° 0 mm 1 m/s 751 mmHg 24%
    21:00 +29°C° 0 mm 1 m/s 752 mmHg 25%
    22:00 +29°C° 0 mm 1 m/s 752 mmHg 26%
    23:00 +28°C° 0 mm 1 m/s 751 mmHg 27%

    26 Fevereiro, Segunda-feira

    Tempo Temperatura Precipitação Vento Pressão Humidade
    00:00 +28°C° 0 mm 1 m/s 751 mmHg 28%
    01:00 +27°C° 0 mm 1 m/s 751 mmHg 29%
    02:00 +26°C° 0 mm 1 m/s 751 mmHg 30%
    03:00 +26°C° 0 mm 2 m/s 751 mmHg 31%
    04:00 +25°C° 0 mm 2 m/s 751 mmHg 32%
    05:00 +25°C° 0 mm 2 m/s 751 mmHg 34%
    06:00 +24°C° 0 mm 2 m/s 752 mmHg 35%
    07:00 +26°C° 0 mm 2 m/s 752 mmHg 32%
    08:00 +28°C° 0 mm 2 m/s 752 mmHg 29%
    09:00 +30°C° 0 mm 1 m/s 753 mmHg 27%
    10:00 +32°C° 0 mm 1 m/s 752 mmHg 24%
    11:00 +34°C° 0 mm 1 m/s 751 mmHg 21%
    12:00 +36°C° 0 mm 1 m/s 751 mmHg 19%
    13:00 +37°C° 0 mm 1 m/s 750 mmHg 18%
    14:00 +37°C° 0 mm 1 m/s 749 mmHg 17%
    15:00 +37°C° 0 mm 1 m/s 748 mmHg 16%
    16:00 +36°C° 0 mm 1 m/s 748 mmHg 17%
    17:00 +35°C° 0 mm 1 m/s 748 mmHg 18%
    18:00 +33°C° 0 mm 1 m/s 748 mmHg 19%
    19:00 +32°C° 0 mm 1 m/s 749 mmHg 20%
    20:00 +32°C° 0 mm 1 m/s 750 mmHg 21%
    21:00 +31°C° 0 mm 2 m/s 750 mmHg 21%
    22:00 +30°C° 0 mm 2 m/s 750 mmHg 23%
    23:00 +29°C° 0 mm 2 m/s 750 mmHg 25%

    27 Fevereiro, Terça-feira

    Tempo Temperatura Precipitação Vento Pressão Humidade
    00:00 +29°C° 0 mm 2 m/s 750 mmHg 26%
    01:00 +28°C° 0 mm 2 m/s 750 mmHg 29%
    02:00 +27°C° 0 mm 2 m/s 750 mmHg 32%
    03:00 +26°C° 0 mm 2 m/s 750 mmHg 35%
    04:00 +26°C° 0 mm 3 m/s 750 mmHg 38%
    05:00 +25°C° 0 mm 3 m/s 751 mmHg 41%
    06:00 +24°C° 0 mm 3 m/s 751 mmHg 44%
    07:00 +26°C° 0 mm 3 m/s 751 mmHg 40%
    08:00 +28°C° 0 mm 3 m/s 752 mmHg 36%
    09:00 +30°C° 0 mm 3 m/s 752 mmHg 32%
    10:00 +33°C° 0 mm 3 m/s 751 mmHg 29%
    11:00 +35°C° 0 mm 3 m/s 751 mmHg 26%
    12:00 +36°C° 0 mm 3 m/s 750 mmHg 23%
    13:00 +37°C° 0 mm 3 m/s 749 mmHg 21%
    14:00 +37°C° 0 mm 3 m/s 748 mmHg 20%
    15:00 +38°C° 0 mm 3 m/s 747 mmHg 19%
    16:00 +36°C° 0 mm 2 m/s 748 mmHg 20%
    17:00 +35°C° 0 mm 2 m/s 748 mmHg 22%
    18:00 +32°C° 0 mm 2 m/s 748 mmHg 23%
    19:00 +32°C° 0 mm 2 m/s 748 mmHg 24%
    20:00 +31°C° 0 mm 1 m/s 749 mmHg 26%
    21:00 +30°C° 0 mm 1 m/s 749 mmHg 27%
    22:00 +29°C° 0 mm 1 m/s 749 mmHg 28%
    23:00 +28°C° 0 mm 1 m/s 749 mmHg 29%

    28 Fevereiro, Quarta-feira

    Tempo Temperatura Precipitação Vento Pressão Humidade
    00:00 +28°C° 0 mm 1 m/s 749 mmHg 30%
    01:00 +27°C° 0 mm 1 m/s 749 mmHg 31%
    02:00 +27°C° 0 mm 1 m/s 749 mmHg 33%
    03:00 +26°C° 0 mm 2 m/s 749 mmHg 34%
    04:00 +25°C° 0 mm 2 m/s 749 mmHg 36%
    05:00 +25°C° 0 mm 2 m/s 749 mmHg 38%
    06:00 +24°C° 0 mm 2 m/s 750 mmHg 40%
    07:00 +26°C° 0 mm 2 m/s 750 mmHg 36%
    08:00 +28°C° 0 mm 2 m/s 751 mmHg 33%
    09:00 +30°C° 0 mm 2 m/s 751 mmHg 30%
    10:00 +32°C° 0 mm 2 m/s 750 mmHg 27%
    11:00 +35°C° 0 mm 2 m/s 750 mmHg 24%
    12:00 +36°C° 0 mm 2 m/s 749 mmHg 22%
    13:00 +37°C° 0 mm 2 m/s 748 mmHg 21%
    14:00 +37°C° 0 mm 2 m/s 748 mmHg 20%
    15:00 +38°C° 0 mm 2 m/s 747 mmHg 19%
    16:00 +36°C° 0 mm 1 m/s 747 mmHg 20%
    17:00 +34°C° 0 mm 1 m/s 747 mmHg 21%
    18:00 +33°C° 0 mm 1 m/s 747 mmHg 23%
    19:00 +32°C° 0 mm 1 m/s 748 mmHg 24%
    20:00 +32°C° 0 mm 1 m/s 748 mmHg 25%
    21:00 +31°C° 0 mm 1 m/s 748 mmHg 26%
    22:00 +30°C° 0 mm 1 m/s 748 mmHg 27%
    23:00 +29°C° 0 mm 1 m/s 748 mmHg 28%
    Mostrar mais